Regional Weather Roundup
Issued by NWS

Home | Current Version | Previous Version | Graphics & Text | Print | Product List | Glossary Off
Versions: 1 2 3 4 5 6 7 8 9 10 11 12 13 14 15 16 17 18 19 20 21 22 23 24 25 26 27 28 29 30 31 32 33 34 35 36 37 38 39 40 41 42 43 44 45 46 47 48 49 50

000
ASUS43 KDTX 240001
RWRMI
MICHIGAN HOURLY REGIONAL WEATHER ROUNDUP
NATIONAL WEATHER SERVICE DETROIT/PONTIAC MI
800 PM EDT SUN APR 23 2017

NOTE: "FAIR" INDICATES FEW OR NO CLOUDS BELOW 12,000 FEET WITH NO
SIGNIFICANT WEATHER AND/OR OBSTRUCTION TO VISIBILITY.

MIZ047>049-052>055-059>063-066>070-074>076-081>083-240100-
SOUTHEAST LOWER MICHIGAN

CITY           SKY/WX    TMP DP  RH WIND       PRES   REMARKS
ADRIAN         CLEAR     62  35  36 E5        30.04F
6HR MIN TEMP:  62; 6HR MAX TEMP:  68;

ALMA           CLEAR     65  33  30 NW9       30.03S
ANN ARBOR      CLEAR     61  32  33 SE3       30.04F
BAD AXE        PTCLDY    44  37  77 NE8       30.10R
6HR MIN TEMP:  44; 6HR MAX TEMP:  66;

CARO           CLEAR     54  41  62 E9        30.05R
DETROIT CITY   CLEAR     61  35  37 S6        30.05S
6HR MIN TEMP:  61; 6HR MAX TEMP:  66;

DETROIT        PTCLDY    62  25  24 S3        30.05F
6HR MIN TEMP:  62; 6HR MAX TEMP:  69;

FLINT          CLEAR     64  32  30 SW3       30.04S
6HR MIN TEMP:  63; 6HR MAX TEMP:  69;

GROSSE ILE     CLEAR     57  27  31 CALM      30.04S
6HR MIN TEMP:  55; 6HR MAX TEMP:  57;

HILLSDALE      CLEAR     61  36  39 CALM      30.03S
HOWELL         CLEAR     64  22  20 CALM      30.04S
6HR MIN TEMP:  64; 6HR MAX TEMP:  69;


CITY           SKY/WX    TMP DP  RH WIND       PRES   REMARKS
JACKSON        CLEAR     65  25  22 NW6       30.04S
6HR MIN TEMP:  65; 6HR MAX TEMP:  70;

LAMBERTVILLE   CLEAR     60  27  28 CALM      30.04R
6HR MIN TEMP:  60; 6HR MAX TEMP:  65;

LANSING        CLEAR     67  28  23 CALM      30.04S
6HR MIN TEMP:  66; 6HR MAX TEMP:  70;

LAPEER         FAIR      62  40  45 NE8       30.05R
6HR MIN TEMP:  62; 6HR MAX TEMP:  69;

MASON          CLEAR     65  32  28 CALM      30.04S
MONROE         CLEAR     59  21  23 CALM      30.04S
6HR MIN TEMP:  59; 6HR MAX TEMP:  64;

PONTIAC        PTCLDY    63  32  31 S8        30.03S
6HR MIN TEMP:  63; 6HR MAX TEMP:  69;

PORT HOPE        N/A     41  37  86 N12       30.10R
6HR MIN TEMP:  41; 6HR MAX TEMP:  49;

PORT HURON     CLEAR     50  34  53 NE7       30.08S
TRI CITIES     PTCLDY    50  44  80 NE20      30.07R
6HR MIN TEMP:  50; 6HR MAX TEMP:  71;

MIDLAND        MOCLDY    49  37  62 NE14      30.07R
6HR MIN TEMP:  49; 6HR MAX TEMP:  72;

TROY           CLEAR     64  29  26 S5        30.06F
SAGINAW HB     CLEAR     55  41  58 NE15      30.05R
$$
MIZ043>046-050>051-056>058-064>065-071>073-077>080-240100-
SOUTHWEST LOWER MICHIGAN

CITY           SKY/WX    TMP DP  RH WIND       PRES   REMARKS
BATTLE CREEK   CLEAR     65  30  27 NW7       30.05S
6HR MIN TEMP:  65; 6HR MAX TEMP:  70;

BENTON HARBOR  CLEAR     59  26  28 CALM      30.05F
6HR MIN TEMP:  59; 6HR MAX TEMP:  65;

BIG RAPIDS     CLEAR     62  32  32 NW6       30.04S
6HR MIN TEMP:  62; 6HR MAX TEMP:  68;

COLDWATER      CLEAR     66  25  21 CALM      30.03F
6HR MIN TEMP:  65; 6HR MAX TEMP:  69;

FREMONT        FAIR      63  35  35 CALM      30.04S
HOLLAND        CLEAR     60  33  36 NW6       30.06F
6HR MIN TEMP:  60; 6HR MAX TEMP:  65;

GRAND RAPIDS   PTCLDY    63  35  35 W9        30.04S
6HR MIN TEMP:  63; 6HR MAX TEMP:  69;

IONIA          FAIR      66  31  27 W5        30.03S
6HR MIN TEMP:  66; 6HR MAX TEMP:  70;

KALAMAZOO      CLEAR     67  22  18 NE3       30.05R
6HR MIN TEMP:  64; 6HR MAX TEMP:  71;

LUDINGTON      CLEAR     51  41  68 NW5       30.05F
6HR MIN TEMP:  51; 6HR MAX TEMP:  55;

MARSHALL       CLEAR     66  26  22 CALM      30.03S
6HR MIN TEMP:  66; 6HR MAX TEMP:  71;

MOUNT PLEASANT CLOUDY    57  38  50 NE15      30.05R
6HR MIN TEMP:  57; 6HR MAX TEMP:  70;

MUSKEGON       PTCLDY    51  34  52 SW5       30.06F
6HR MIN TEMP:  51; 6HR MAX TEMP:  64;

SOUTH HAVEN    CLEAR     58  29  32 N5        30.05F
$$
MIZ016>042-240100-
NORTHERN LOWER MICHIGAN

CITY           SKY/WX    TMP DP  RH WIND       PRES   REMARKS
ALPENA         CLOUDY    45  29  53 N7        30.12F
6HR MIN TEMP:  45; 6HR MAX TEMP:  55;

BEAVER ISLAND  CLOUDY    38  21  49 N7        30.16S WCI  33
6HR MIN TEMP:  38; 6HR MAX TEMP:  43;

BELLAIRE       CLOUDY    43  28  55 N7        30.12S
6HR MIN TEMP:  43; 6HR MAX TEMP:  52;

CADILLAC       CLEAR     47  33  58 N5        30.06F
CHARLEVOIX     CLOUDY    38  29  70 N10       30.17R WCI  31
FRANKFORT      PTCLDY    44  31  61 NE6       30.10S
GAYLORD        CLOUDY    47  30  51 VRB6      30.09S
6HR MIN TEMP:  47; 6HR MAX TEMP:  58;

GRAYLING       MOCLDY    52  35  52 N7        30.08S
HARBOR SPRINGS CLOUDY    41  23  48 N9        30.14R
HOUGHTON LAKE  CLEAR     56  36  47 N9        30.06S
6HR MIN TEMP:  56; 6HR MAX TEMP:  66;

MANISTEE       CLEAR     51  37  58 NE10      30.06S
OSCODA         CLEAR     45  36  69 NE9       30.10S
6HR MIN TEMP:  45; 6HR MAX TEMP:  55;

PELLSTON       CLOUDY    42  23  46 NW8       30.14S
6HR MIN TEMP:  42; 6HR MAX TEMP:  48;

ROGERS CITY    MOCLDY    43  20  40 NW5       30.13S
TRAVERSE CITY  MOCLDY    41  24  51 N8        30.11F
6HR MIN TEMP:  41; 6HR MAX TEMP:  47;

$$
MIZ007>008-015-240100-
EASTERN UPPER MICHIGAN

CITY           SKY/WX    TMP DP  RH WIND       PRES   REMARKS
KINROSS        MOCLDY    33  22  63 NW16      30.14S WCI  23
6HR MIN TEMP:  33; 6HR MAX TEMP:  40;

MACKINAC ISLAN CLOUDY    37  23  56 VRB9      30.14R WCI  31
NEWBERRY       CLOUDY    32  20  61 NW6       30.16R WCI  27
6HR MIN TEMP:  32; 6HR MAX TEMP:  37;

S. S. MARIE    CLOUDY    35  24  64 NW14G20   30.13F WCI  26
6HR MIN TEMP:  35; 6HR MAX TEMP:  43;

MUNISING         N/A     33  24  69 NE12      30.18F WCI  24
6HR MIN TEMP:  33; 6HR MAX TEMP:  34;

$$
MIZ004>006-011>014-085-240100-
CENTRAL UPPER MICHIGAN

CITY           SKY/WX    TMP DP  RH WIND       PRES   REMARKS
MANISTIQUE     CLOUDY    37  19  48 N9        30.15F WCI  30
6HR MIN TEMP:  37; 6HR MAX TEMP:  43;

ESCANABA       CLOUDY    38  21  50 N6        30.16S WCI  33
6HR MIN TEMP:  38; 6HR MAX TEMP:  42;

MENOMINEE      CLOUDY    39  28  64 E13G21    30.14S WCI  31
6HR MIN TEMP:  39; 6HR MAX TEMP:  43;

SAWYER-GWINN   CLOUDY    30  21  69 NE10      30.16F WCI  21
$$
MIZ001>003-009>011-084-240100-
WESTERN UPPER MICHIGAN

CITY           SKY/WX    TMP DP  RH WIND       PRES   REMARKS
IRON MOUNTAIN  CLOUDY    40  25  55 NE8       30.10F WCI  34
6HR MIN TEMP:  38; 6HR MAX TEMP:  44; 6HR PCP: TRACE;

HOUGHTON       CLOUDY    31  22  69 E7        30.16F WCI  24
6HR MIN TEMP:  31; 6HR MAX TEMP:  35;

COPPER HARBOR    N/A     32  16  51 CALM      30.19F
6HR MIN TEMP:  31; 6HR MAX TEMP:  34;

IRONWOOD       CLOUDY    37  30  75 E10       30.10F WCI  30
6HR MIN TEMP:  37; 6HR MAX TEMP:  39; 6HR PCP: TRACE;

$$

ABBREVIATIONS USED IN REMARKS
   TC - TEMPERATURE IN CELSIUS
  WCI - WIND CHILL INDEX
   HX - HEAT INDEX
  VSB - VISIBILITY




USA.gov is the U.S. government's official web portal to all federal, state and local government web resources and services.